Wind_Speed
30 30 28 26 24 22 20 19 17 16 14 14 14 14 14 15 17 17 17 19 20 22 22 21 21 22 22 21 20 20 19 18 18 17 15 13 14 15 16 17 17 18 20
32 33 30 29 28 27 25 23 21 18 17 16 16 15 15 15 16 17 17 19 21 21 21 21 21 22 22 21 20 20 19 19 18 18 17 16 15 16 17 17 19 20 20
34 35 35 32 30 29 29 27 24 21 19 18 18 17 16 16 16 17 18 19 20 20 20 21 22 22 21 21 21 20 20 20 20 19 18 18 18 17 18 19 19 19 20
36 36 37 36 35 33 32 31 28 25 23 21 20 19 18 18 18 19 19 19 19 18 18 21 22 23 22 21 21 21 21 20 20 20 20 19 19 19 19 19 19 19 20
38 38 38 38 37 36 35 33 31 29 27 24 23 21 20 20 20 20 21 20 20 20 20 21 23 24 24 23 22 22 22 22 21 20 20 20 20 20 20 19 19 20 20
38 38 38 39 39 38 37 36 33 31 29 27 25 23 22 22 21 22 22 21 20 22 23 24 24 26 26 26 25 24 24 23 23 21 21 21 21 21 22 20 19 20 21
39 38 38 39 40 39 36 35 35 33 31 28 27 25 24 24 24 24 23 22 21 21 23 25 26 27 27 27 27 27 26 24 23 21 21 21 22 21 22 21 20 21 21
41 39 39 40 40 39 37 35 35 35 33 31 29 27 27 28 26 26 24 22 22 23 24 25 26 27 27 27 27 27 26 25 23 21 20 20 21 21 20 20 20 22 23
43 42 41 42 41 39 37 36 36 36 36 33 31 30 29 30 28 26 24 23 23 24 25 25 26 26 27 27 26 26 25 23 21 19 19 19 20 20 20 20 19 22 23
46 45 45 44 42 40 38 36 36 37 38 36 33 31 30 30 29 27 25 24 24 24 25 26 28 28 29 28 27 26 25 22 20 19 18 18 18 19 19 19 20 21 19
49 47 46 45 43 41 39 39 38 38 39 38 34 30 29 30 30 28 26 26 25 24 24 25 28 30 31 29 28 26 25 22 20 19 18 17 17 17 18 19 20 18 16
49 47 46 45 43 42 41 41 40 39 39 39 35 31 29 29 29 28 26 27 28 28 27 26 27 29 29 27 26 25 23 22 20 19 18 16 16 16 16 17 18 18 17
48 47 46 45 44 41 41 41 39 39 40 40 37 33 30 29 29 28 27 27 27 29 29 27 26 26 26 24 23 23 22 21 19 19 18 17 16 15 16 16 17 18 18
47 46 46 45 44 42 40 38 36 37 40 40 38 33 31 30 29 28 27 26 26 28 29 29 27 26 26 24 22 21 21 20 19 18 18 17 16 16 16 17 16 17 17
45 43 41 41 40 41 40 37 35 37 40 40 37 34 31 29 27 26 26 27 27 26 27 29 28 26 25 23 22 20 20 19 19 18 18 17 17 16 16 16 16 15 15
40 37 35 36 38 38 38 38 37 39 40 38 36 33 30 27 25 25 26 27 26 25 25 27 27 25 23 22 21 20 19 20 19 18 18 17 17 16 16 15 14 14 14
34 32 31 33 36 38 39 40 40 40 38 36 32 27 25 24 24 25 25 25 25 25 24 25 25 24 22 20 20 20 19 20 20 19 17 16 16 16 15 14 14 14 14
28 28 27 27 26 27 28 31 33 33 32 29 26 24 23 22 23 23 23 23 24 25 24 23 23 23 22 21 20 20 20 21 21 19 18 16 15 15 15 15 15 14 14
27 27 25 23 22 21 20 20 20 21 21 21 21 21 22 23 24 24 24 24 25 25 24 23 23 23 23 22 22 22 21 22 21 19 19 18 17 17 17 19 18 16 15
32 31 29 26 23 21 21 20 20 20 21 22 23 25 26 27 27 27 26 26 27 26 25 24 24 25 24 23 23 24 23 23 22 20 19 19 19 20 21 22 21 20 18
37 37 36 34 31 29 27 26 25 24 25 25 26 27 27 28 28 28 28 28 28 28 27 26 26 26 25 24 24 24 24 24 24 22 19 21 23 23 24 25 25 24 22
39 40 40 40 40 38 37 35 33 32 32 32 32 32 31 31 31 31 30 29 29 29 29 29 28 27 26 24 24 25 25 25 25 24 22 21 23 26 27 27 27 27 26
39 41 42 43 43 44 44 43 42 41 40 39 39 38 37 36 35 33 32 31 31 31 31 30 29 27 26 25 24 25 26 26 26 26 25 23 23 25 26 27 27 26 26
40 41 43 44 45 46 46 47 46 46 44 44 43 43 42 40 37 35 33 32 32 32 32 32 30 29 28 27 26 26 27 28 28 27 26 24 24 24 23 25 25 24 25
38 39 41 43 44 44 45 45 45 45 44 43 43 43 42 41 38 36 35 34 34 34 34 35 34 33 32 31 30 29 29 29 30 30 30 29 27 25 23 24 26 27 27
36 37 37 38 38 39 39 39 39 39 39 39 38 38 38 38 38 37 37 36 36 36 36 37 36 36 35 34 33 33 32 33 33 33 33 30 28 27 25 25 25 26 27
Wind_Direction
315 317 313 306 300 294 290 287 288 289 296 303 301 295 291 290 291 296 302 308 312 314 316 318 320 320 317 312 308 308 310 312 313 311 307 298 286 275 271 271 271 268 264
312 313 311 304 300 297 293 288 285 284 290 297 297 294 291 289 290 296 302 306 310 313 314 315 318 321 319 315 313 311 311 313 312 308 302 297 291 283 274 277 279 274 269
307 309 310 304 297 294 295 290 283 281 283 287 292 292 290 289 288 293 299 304 307 311 313 313 316 318 317 314 313 311 310 310 310 306 300 295 290 286 281 278 283 278 271
302 305 306 305 297 291 290 288 281 277 278 280 284 288 288 288 289 292 296 299 302 304 307 309 312 314 314 312 312 312 311 312 310 305 300 295 290 284 283 281 279 282 276
302 304 305 305 302 293 287 284 279 275 274 275 278 282 285 286 288 290 292 293 295 299 301 303 307 310 311 311 312 312 312 313 313 307 300 295 291 284 282 280 278 282 278
302 304 303 304 305 300 289 282 276 272 270 272 274 277 281 284 286 287 286 286 287 292 295 297 300 303 305 307 310 313 313 314 314 309 301 293 288 283 279 275 276 279 278
300 301 301 301 301 301 295 283 273 268 267 269 272 276 280 284 286 284 281 281 281 284 290 294 296 297 298 301 306 311 313 315 316 311 303 293 285 281 276 272 274 274 276
297 297 297 297 297 295 292 284 275 267 264 265 268 273 279 283 284 281 276 276 279 286 289 291 292 293 294 296 302 308 312 315 316 313 305 295 286 280 273 271 273 272 273
293 294 294 294 293 290 287 283 277 268 263 263 265 270 275 281 280 276 272 272 278 285 290 292 292 291 291 293 299 305 310 312 313 312 304 294 287 279 270 267 268 271 268
289 289 289 289 287 284 281 279 276 271 266 262 263 268 275 277 276 273 271 270 274 282 289 293 294 292 291 292 295 301 307 309 308 308 304 294 288 280 271 265 267 268 264
287 286 285 283 280 278 275 275 274 270 266 262 261 266 272 275 274 271 273 278 281 284 288 291 290 290 289 290 292 298 304 304 302 301 300 293 289 284 271 265 267 265 266
285 283 280 277 274 272 270 271 271 268 265 261 259 264 269 273 270 269 274 282 288 292 294 294 291 289 290 291 292 296 301 301 297 294 293 290 286 284 272 266 265 266 268
282 279 275 271 268 266 265 267 268 264 262 259 259 262 266 268 268 268 272 280 286 290 293 294 292 292 293 294 294 296 299 300 296 290 286 285 281 278 272 271 268 267 266
280 278 273 268 263 261 262 264 263 262 260 257 257 260 263 263 264 266 272 278 284 288 291 292 293 293 294 294 294 295 298 299 297 291 285 281 278 273 270 270 269 267 264
280 278 272 266 261 259 260 260 260 259 257 255 255 258 258 258 261 266 272 277 281 283 285 288 292 293 294 294 292 291 293 293 294 291 285 279 274 271 268 268 265 259 252
280 278 272 265 260 257 256 255 256 256 254 253 253 254 254 256 261 268 273 276 278 280 279 283 287 290 292 292 288 286 288 289 289 288 284 277 270 266 262 259 250 240 230
278 275 268 263 258 253 252 251 253 252 249 251 251 252 256 260 264 267 270 272 275 278 278 280 284 287 289 287 285 282 283 286 285 282 280 273 267 260 249 241 230 221 210
280 278 273 271 267 262 256 254 254 253 253 253 255 258 263 265 267 268 269 270 273 277 278 280 283 285 286 285 283 281 281 282 284 277 272 267 260 249 236 223 214 208 204
287 288 292 291 289 288 285 280 275 272 270 268 267 267 267 268 269 270 270 270 273 275 278 280 282 283 282 282 280 279 282 280 280 274 266 259 252 243 230 217 210 208 208
283 287 290 291 292 292 291 288 284 281 278 275 273 272 271 272 272 272 270 270 272 273 276 279 281 281 281 280 277 276 278 277 274 273 267 257 249 242 231 220 215 214 215
280 281 284 286 287 288 287 287 286 283 281 278 276 276 275 274 274 272 271 270 270 270 271 274 278 278 278 277 276 274 274 273 273 268 271 264 251 240 232 225 220 219 220
277 277 279 281 282 283 284 283 283 283 283 283 282 281 281 279 277 275 273 270 269 267 268 270 272 273 273 272 270 270 271 271 271 268 267 272 264 245 236 229 226 224 224
277 277 277 278 280 281 282 283 283 283 283 283 283 283 282 282 281 279 275 272 269 265 264 266 267 268 268 266 266 265 266 267 268 269 268 269 268 257 249 239 233 226 225
280 279 278 278 278 279 280 281 282 282 282 281 282 282 282 282 282 280 276 273 269 264 262 262 262 263 263 263 262 261 262 264 266 267 269 268 267 260 257 250 243 234 229
280 280 279 278 278 279 280 281 282 282 281 281 281 282 281 280 279 276 272 270 267 264 261 260 260 261 262 262 262 262 262 264 266 267 269 272 272 264 255 250 247 243 237
279 278 279 279 280 280 281 281 281 281 281 280 279 277 275 273 271 268 267 265 263 262 261 260 260 262 262 263 264 263 262 263 264 267 269 271 270 265 254 248 251 246 237
Height
5915 5914 5913 5912 5911 5909 5908 5906 5905 5904 5903 5902 5900 5899 5898 5897 5896 5895 5895 5893 5891 5890 5888 5886 5884 5882 5881 5880 5879 5878 5876 5874 5872 5870 5869 5869 5869 5869 5869 5870 5870 5870 5870
5911 5910 5909 5909 5908 5907 5906 5904 5902 5901 5900 5899 5897 5896 5895 5894 5893 5892 5891 5889 5888 5886 5884 5882 5881 5879 5877 5876 5875 5874 5873 5871 5869 5867 5866 5865 5865 5864 5864 5865 5865 5865 5865
5906 5905 5904 5903 5902 5902 5901 5900 5899 5897 5896 5895 5894 5892 5891 5890 5889 5888 5887 5886 5884 5882 5880 5879 5877 5876 5874 5872 5871 5870 5869 5868 5866 5864 5862 5861 5860 5860 5859 5859 5860 5860 5860
5901 5899 5898 5896 5895 5894 5894 5894 5894 5893 5892 5891 5889 5888 5887 5886 5885 5884 5883 5881 5880 5879 5877 5875 5874 5872 5870 5868 5867 5866 5865 5864 5863 5861 5859 5857 5856 5855 5854 5854 5854 5854 5854
5895 5894 5892 5889 5887 5887 5886 5886 5887 5887 5886 5885 5884 5884 5883 5882 5880 5879 5878 5877 5875 5874 5873 5872 5870 5868 5866 5864 5863 5861 5860 5859 5858 5856 5854 5853 5851 5850 5849 5849 5848 5849 5848
5889 5887 5886 5883 5880 5878 5878 5878 5878 5879 5879 5879 5878 5878 5878 5877 5875 5874 5873 5872 5871 5869 5868 5867 5866 5864 5862 5860 5858 5856 5855 5854 5852 5851 5849 5847 5846 5845 5844 5844 5843 5843 5843
5882 5881 5879 5876 5873 5871 5870 5869 5869 5870 5872 5872 5871 5871 5871 5870 5870 5869 5867 5866 5866 5865 5864 5862 5860 5859 5858 5856 5853 5851 5849 5848 5846 5845 5844 5842 5841 5840 5839 5838 5838 5837 5838
5874 5873 5871 5869 5866 5864 5862 5862 5862 5862 5863 5864 5864 5864 5864 5864 5863 5862 5861 5861 5860 5860 5859 5858 5856 5853 5852 5850 5848 5846 5843 5842 5841 5840 5838 5837 5835 5834 5834 5833 5832 5831 5832
5866 5864 5863 5861 5858 5857 5855 5854 5854 5854 5855 5855 5856 5857 5857 5856 5855 5855 5855 5855 5855 5854 5853 5851 5850 5848 5846 5844 5843 5841 5839 5837 5835 5834 5833 5832 5830 5829 5828 5827 5827 5827 5828
5856 5856 5854 5852 5850 5848 5847 5846 5846 5847 5847 5847 5848 5848 5849 5849 5848 5848 5848 5849 5849 5849 5848 5846 5843 5841 5840 5838 5837 5835 5833 5832 5830 5829 5828 5827 5825 5824 5823 5822 5822 5823 5823
5846 5845 5843 5842 5840 5839 5838 5837 5837 5838 5839 5840 5840 5840 5841 5841 5841 5841 5841 5842 5842 5843 5842 5841 5838 5836 5834 5832 5831 5829 5828 5827 5825 5825 5824 5823 5821 5820 5819 5819 5819 5819 5820
5834 5833 5832 5831 5830 5829 5828 5828 5827 5828 5830 5831 5832 5832 5833 5834 5834 5834 5834 5834 5834 5834 5834 5834 5832 5830 5828 5826 5825 5824 5823 5822 5821 5820 5819 5819 5817 5816 5816 5816 5816 5816 5816
5821 5820 5819 5819 5818 5818 5817 5818 5818 5819 5821 5822 5824 5824 5824 5825 5826 5827 5827 5827 5827 5827 5826 5825 5825 5823 5821 5820 5819 5818 5817 5816 5816 5815 5815 5814 5813 5813 5812 5812 5812 5812 5812
5809 5807 5806 5806 5806 5807 5807 5808 5809 5810 5812 5814 5815 5815 5816 5817 5818 5819 5820 5820 5820 5820 5817 5816 5817 5816 5815 5814 5813 5812 5812 5811 5811 5810 5810 5810 5809 5809 5808 5808 5808 5808 5808
5798 5796 5795 5795 5796 5797 5798 5799 5800 5801 5803 5805 5806 5807 5807 5808 5809 5811 5812 5812 5813 5813 5812 5809 5809 5809 5809 5808 5807 5807 5807 5807 5806 5806 5805 5805 5805 5804 5804 5804 5804 5804 5805
5788 5787 5786 5786 5786 5786 5788 5789 5791 5793 5795 5796 5797 5798 5798 5800 5802 5803 5804 5804 5804 5805 5805 5803 5802 5802 5802 5802 5801 5802 5802 5801 5801 5801 5800 5800 5800 5800 5800 5800 5800 5801 5802
5780 5779 5778 5778 5777 5778 5779 5781 5783 5785 5786 5787 5787 5788 5789 5791 5793 5795 5796 5797 5797 5797 5798 5797 5796 5795 5795 5796 5796 5797 5797 5797 5796 5796 5796 5795 5795 5796 5796 5797 5797 5798 5800
5774 5773 5772 5771 5769 5769 5770 5772 5774 5775 5776 5777 5778 5781 5782 5784 5786 5788 5789 5790 5790 5790 5791 5791 5790 5789 5789 5790 5791 5791 5792 5792 5792 5791 5791 5791 5791 5792 5793 5794 5795 5796 5798
5768 5767 5766 5765 5765 5764 5764 5765 5767 5768 5769 5771 5772 5774 5776 5778 5779 5781 5782 5783 5783 5783 5783 5784 5783 5782 5783 5784 5785 5786 5787 5787 5787 5787 5787 5787 5787 5788 5789 5791 5792 5793 5795
5761 5760 5760 5760 5760 5761 5760 5761 5762 5763 5764 5765 5766 5768 5769 5771 5772 5773 5774 5775 5775 5776 5776 5776 5777 5776 5776 5777 5778 5779 5781 5782 5782 5782 5782 5782 5783 5783 5785 5786 5788 5789 5791
5753 5753 5753 5753 5753 5754 5754 5755 5756 5757 5758 5759 5760 5761 5762 5763 5764 5765 5766 5767 5767 5768 5768 5769 5769 5769 5769 5770 5771 5773 5774 5775 5776 5777 5777 5777 5777 5778 5779 5781 5782 5784 5786
5746 5745 5745 5744 5744 5745 5746 5747 5748 5749 5750 5751 5752 5752 5753 5754 5755 5756 5757 5757 5758 5759 5760 5761 5761 5762 5763 5763 5764 5765 5767 5769 5770 5771 5772 5771 5771 5771 5772 5774 5776 5778 5780
5737 5737 5736 5736 5735 5735 5736 5736 5737 5738 5739 5740 5741 5742 5743 5744 5745 5746 5747 5748 5749 5750 5751 5752 5752 5753 5754 5755 5756 5757 5759 5761 5763 5764 5765 5765 5765 5765 5766 5767 5768 5771 5773
5728 5727 5727 5727 5727 5727 5726 5726 5726 5727 5728 5729 5730 5731 5732 5733 5734 5735 5736 5738 5739 5740 5741 5742 5743 5744 5745 5746 5748 5750 5751 5753 5755 5756 5757 5758 5758 5759 5759 5760 5761 5763 5766
5720 5719 5718 5718 5718 5718 5718 5718 5718 5718 5718 5718 5719 5720 5721 5722 5723 5724 5726 5727 5728 5730 5730 5732 5733 5734 5735 5737 5739 5741 5743 5745 5746 5748 5749 5750 5751 5752 5752 5753 5753 5755 5758
5712 5711 5710 5710 5710 5710 5709 5708 5708 5708 5708 5709 5709 5710 5710 5711 5712 5714 5715 5716 5718 5719 5720 5721 5723 5725 5726 5727 5729 5731 5733 5735 5737 5739 5741 5743 5744 5745 5746 5746 5745 5746 5749